| time (UTC) | temp C | wind direction | speed KPH | gust KPH | rain 1hr cm | rain 24hr cm | rain mn cm | humidity % | barometer mb |
| 20260503021542 | 10 | 0 | 0.0 | 0.0 | 0.00 | 0.38 | 0.38 | 88 | 1013.2 |
| 20260503020037 | 10 | 0 | 0.0 | 0.0 | 0.00 | 0.38 | 0.38 | 89 | 1013.3 |
| 20260503014604 | 10 | 0 | 0.0 | 0.0 | 0.00 | 0.38 | 0.38 | 89 | 1013.2 |
| 20260503013044 | 10 | 0 | 0.0 | 0.0 | 0.00 | 0.38 | 0.38 | 88 | 1013.1 |
| 20260503011542 | 10 | 0 | 0.0 | 0.0 | 0.00 | 0.38 | 0.38 | 86 | 1012.8 |
| 20260503010042 | 11 | 0 | 0.0 | 0.0 | 0.00 | 0.38 | 0.38 | 87 | 1012.5 |
| 20260503004539 | 11 | 0 | 0.0 | 0.0 | 0.00 | 0.38 | 0.38 | 86 | 1012.4 |
| 20260503003048 | 11 | 0 | 0.0 | 0.0 | 0.00 | 0.38 | 0.38 | 84 | 1012.2 |
| 20260503001551 | 11 | 0 | 0.0 | 0.0 | 0.00 | 0.38 | 0.38 | 82 | 1012.1 |
| 20260503000041 | 12 | 0 | 0.0 | 0.0 | 0.00 | 0.38 | 0.38 | 82 | 1011.9 |
| 20260502234543 | 12 | 0 | 0.0 | 6.4 | 0.00 | 0.38 | 0.38 | 83 | 1011.6 |
| 20260502233045 | 12 | 284 | 1.6 | 9.7 | 0.00 | 0.38 | 0.38 | 81 | 1011.6 |
| 20260502231539 | 12 | 0 | 0.0 | 8.0 | 0.00 | 0.38 | 0.38 | 81 | 1011.5 |
| 20260502230041 | 12 | 267 | 3.2 | 9.7 | 0.00 | 0.38 | 0.38 | 80 | 1011.4 |
| 20260502224537 | 12 | 255 | 3.2 | 8.0 | 0.00 | 0.38 | 0.38 | 79 | 1011.3 |
| 20260502223036 | 13 | 0 | 0.0 | 1.6 | 0.00 | 0.38 | 0.38 | 78 | 1011.4 |
| 20260502221544 | 13 | 0 | 0.0 | 4.8 | 0.00 | 0.38 | 0.38 | 77 | 1011.3 |
| 20260502220042 | 13 | 0 | 0.0 | 0.0 | 0.00 | 0.38 | 0.38 | 81 | 1011.2 |
| 20260502214539 | 13 | 0 | 1.6 | 6.4 | 0.00 | 0.38 | 0.38 | 76 | 1011.2 |
| 20260502213043 | 13 | 0 | 0.0 | 0.0 | 0.00 | 0.38 | 0.38 | 76 | 1011.2 |
| 20260502211540 | 13 | 0 | 0.0 | 4.8 | 0.00 | 0.38 | 0.38 | 76 | 1011.1 |
| 20260502210038 | 13 | 167 | 1.6 | 8.0 | 0.00 | 0.38 | 0.38 | 75 | 1011.1 |
| 20260502204539 | 13 | 0 | 0.0 | 9.7 | 0.00 | 0.38 | 0.38 | 75 | 1011.2 |
| 20260502203034 | 13 | 225 | 3.2 | 9.7 | 0.00 | 0.38 | 0.38 | 80 | 1011.2 |
| 20260502201549 | 13 | 202 | 4.8 | 11.3 | 0.00 | 0.38 | 0.38 | 75 | 1011.2 |
| 20260502200043 | 13 | 214 | 1.6 | 11.3 | 0.00 | 0.38 | 0.38 | 76 | 1011.1 |
| 20260502194538 | 13 | 157 | 4.8 | 14.5 | 0.00 | 0.38 | 0.38 | 78 | 1011.4 |
| 20260502193041 | 12 | 0 | 0.0 | 9.7 | 0.00 | 0.38 | 0.38 | 79 | 1011.6 |
| 20260502191555 | 12 | 135 | 4.8 | 11.3 | 0.00 | 0.38 | 0.38 | 80 | 1011.7 |
| 20260502190039 | 12 | 0 | 6.4 | 14.5 | 0.00 | 0.38 | 0.38 | 79 | 1011.8 |
| 20260502184553 | 12 | 144 | 6.4 | 12.9 | 0.00 | 0.38 | 0.38 | 79 | 1011.9 |
| 20260502183059 | 12 | 126 | 4.8 | 14.5 | 0.00 | 0.38 | 0.38 | 80 | 1011.9 |
| 20260502181542 | 11 | 103 | 4.8 | 16.1 | 0.00 | 0.38 | 0.38 | 83 | 1012.1 |
| 20260502163052 | 10 | 114 | 8.0 | 16.1 | 0.03 | 0.38 | 0.38 | 88 | 1013.0 |
| 20260502161547 | 10 | 127 | 6.4 | 12.9 | 0.03 | 0.38 | 0.38 | 88 | 1013.2 |
| 20260502151544 | 11 | 123 | 3.2 | 19.3 | 0.05 | 0.36 | 0.36 | 88 | 1013.1 |
| 20260502123037 | 11 | 46 | 1.6 | 6.4 | 0.03 | 0.05 | 0.05 | 86 | 1012.1 |
| 20260502121549 | 11 | 98 | 0.0 | 6.4 | 0.05 | 0.05 | 0.05 | 86 | 1011.9 |
| 20260502114536 | 11 | 0 | 1.6 | 9.7 | 0.03 | 0.03 | 0.03 | 84 | 1012.0 |
| 20260502113033 | 11 | 105 | 1.6 | 6.4 | 0.03 | 0.03 | 0.03 | 82 | 1012.0 |
| 20260502111535 | 11 | 67 | 1.6 | 9.7 | 0.00 | 0.00 | 0.00 | 80 | 1012.3 |
| 20260502110039 | 11 | 94 | 4.8 | 12.9 | 0.00 | 0.00 | 0.00 | 79 | 1012.3 |
| 20260502104537 | 11 | 126 | 6.4 | 12.9 | 0.00 | 0.00 | 0.00 | 80 | 1012.3 |
| 20260502103039 | 12 | 85 | 3.2 | 8.0 | 0.00 | 0.00 | 0.00 | 80 | 1012.3 |
| 20260502101543 | 11 | 78 | 3.2 | 9.7 | 0.00 | 0.00 | 0.00 | 82 | 1012.2 |
| 20260502070041 | 11 | 0 | 0.0 | 0.0 | 0.00 | 0.00 | 0.00 | 86 | 1011.4 |
| 20260502064537 | 11 | 0 | 0.0 | 0.0 | 0.00 | 0.00 | 0.00 | 86 | 1011.4 |
| 20260502063036 | 11 | 0 | 0.0 | 0.0 | 0.00 | 0.00 | 0.00 | 86 | 1011.6 |
| 20260502061543 | 11 | 0 | 0.0 | 0.0 | 0.00 | 0.00 | 0.00 | 86 | 1011.7 |
| 20260502060044 | 11 | 0 | 0.0 | 0.0 | 0.00 | 0.00 | 0.00 | 85 | 1011.7 |
| 20260502054544 | 11 | 0 | 0.0 | 0.0 | 0.00 | 0.00 | 0.00 | 85 | 1011.7 |
| 20260502053040 | 11 | 0 | 0.0 | 0.0 | 0.00 | 0.00 | 0.00 | 85 | 1012.0 |
| 20260502051545 | 12 | 0 | 0.0 | 0.0 | 0.00 | 0.00 | 0.00 | 83 | 1012.2 |
| 20260502050047 | 11 | 0 | 0.0 | 0.0 | 0.00 | 0.00 | 0.00 | 85 | 1012.3 |
| 20260502044544 | 11 | 0 | 0.0 | 0.0 | 0.00 | 0.00 | 0.00 | 84 | 1012.3 |
| 20260502043041 | 11 | 0 | 0.0 | 0.0 | 0.00 | 0.00 | 0.00 | 83 | 1012.5 |
| 20260502041602 | 11 | 0 | 0.0 | 0.0 | 0.00 | 0.00 | 0.00 | 83 | 1012.4 |
| 20260502040046 | 11 | 0 | 0.0 | 0.0 | 0.00 | 0.00 | 0.00 | 82 | 1012.6 |
| 20260502034536 | 11 | 249 | 1.6 | 4.8 | 0.00 | 0.00 | 0.00 | 83 | 1012.5 |
| 20260502033050 | 11 | 0 | 0.0 | 6.4 | 0.00 | 0.00 | 0.00 | 83 | 1012.6 |
| 20260502031543 | 11 | 272 | 1.6 | 6.4 | 0.00 | 0.00 | 0.00 | 83 | 1012.7 |
| 20260502030042 | 11 | 271 | 1.6 | 6.4 | 0.00 | 0.00 | 0.00 | 83 | 1012.9 |
| 20260502024540 | 11 | 0 | 0.0 | 0.0 | 0.00 | 0.00 | 0.00 | 83 | 1012.9 |
| 20260502023035 | 12 | 0 | 0.0 | 0.0 | 0.00 | 0.00 | 0.00 | 82 | 1013.0 |